Ladysmith, WI

5:41 AM CDT on May 24, 2017 (GMT -0500)
Rusk County

Weather History for KRCX - April, 2014

Change the Weather History Date:

Friday, April 11, 2014

  Actual Average (KPBH) Record (KPBH)
Temperature  
Mean Temperature 42 °F -  
Max Temperature 57 °F 49 °F 73 °F (2006)
Min Temperature 29 °F 29 °F 17 °F (2009)
Degree Days  
Heating Degree Days 22    
Moisture  
Dew Point 32 °F    
Average Humidity 69    
Maximum Humidity 88    
Minimum Humidity 39    
Precipitation  
Precipitation 0.00 in - - ()
Sea Level Pressure  
Sea Level Pressure 29.96 in    
Wind  
Wind Speed 2 mph (West)    
Max Wind Speed 13 mph    
Max Gust Speed 16 mph    
Visibility 10 miles    
Events Rain    
Averages and records for this station are not official NWS values.
T = Trace of Precipitation, MM = Missing Value Source: NWS Daily Summary

Daily Weather History Graph

Daily Weather History Graph

Search for Another Location

Airport or City:

Trip Planner

Search our weather history database for the weather conditions in past years. The results will help you decide how hot, cold, wet, or windy it might be!

Date:

Astronomy

Apr. 11, 2014 Rise Set
Actual Time 6:25 AM CDT 7:45 PM CDT
Civil Twilight 5:55 AM CDT 8:15 PM CDT
Nautical Twilight 5:18 AM CDT 8:52 PM CDT
Astronomical Twilight 4:39 AM CDT 9:32 PM CDT
Moon 4:16 PM CDT (4/11) 4:31 AM CDT (4/11)
Length of Visible Light 14h 20m
Length of Day
13h 19m
Waxing Gibbous, 87% of the Moon is Illuminated
Apr 11
Waxing Gibbous
Apr 15
Full
Apr 22
Last Quarter
Apr 29
New
May 6
First Quarter

Hourly Weather History & Observations

Time (CDT) Temp. Windchill Dew Point Humidity Pressure Visibility Wind Dir Wind Speed Gust Speed Precip Events Conditions
12:15 AM 34.9 °F - 26.8 °F 72% 29.92 in 10.0 mi Calm Calm - N/A   Clear
12:35 AM 32.4 °F - 26.4 °F 79% 29.92 in 10.0 mi Calm Calm - N/A   Clear
12:55 AM 33.8 °F - 26.8 °F 75% 29.92 in 10.0 mi Calm Calm - N/A   Clear
1:15 AM 31.8 °F - 26.6 °F 81% 29.91 in 10.0 mi Calm Calm - N/A   Clear
1:35 AM 30.2 °F - 25.2 °F 82% 29.92 in 10.0 mi Calm Calm - N/A   Clear
1:55 AM 30.7 °F - 25.7 °F 82% 29.93 in 10.0 mi Calm Calm - N/A   Clear
2:15 AM 31.6 °F - 26.2 °F 80% 29.93 in 10.0 mi Calm Calm - N/A   Clear
2:35 AM 30.7 °F - 26.6 °F 85% 29.93 in 10.0 mi Calm Calm - N/A   Clear
2:55 AM 30.4 °F - 27.0 °F 87% 29.93 in 10.0 mi Calm Calm - N/A   Clear
3:15 AM 30.7 °F - 25.2 °F 80% 29.93 in 10.0 mi Calm Calm - N/A   Clear
3:35 AM 30.7 °F - 27.3 °F 87% 29.93 in 10.0 mi Calm Calm - N/A   Clear
3:55 AM 30.0 °F - 26.1 °F 85% 29.93 in 10.0 mi Calm Calm - N/A   Clear
4:15 AM 29.8 °F - 26.1 °F 86% 29.94 in 10.0 mi Calm Calm - N/A   Scattered Clouds
4:35 AM 30.2 °F - 26.6 °F 86% 29.94 in 10.0 mi Calm Calm - N/A   Scattered Clouds
4:55 AM 30.6 °F - 25.7 °F 82% 29.94 in 10.0 mi Calm Calm - N/A   Scattered Clouds
5:15 AM 30.2 °F - 26.8 °F 87% 29.94 in 10.0 mi Calm Calm - N/A   Mostly Cloudy
5:35 AM 31.1 °F - 27.7 °F 87% 29.94 in 10.0 mi Calm Calm - N/A   Overcast
5:55 AM 32.0 °F - 28.8 °F 88% 29.94 in 7.0 mi Calm Calm - N/A   Overcast
6:15 AM 32.2 °F - 28.8 °F 87% 29.94 in 10.0 mi Calm Calm - N/A   Overcast
6:35 AM 33.1 °F - 28.2 °F 82% 29.96 in 10.0 mi Calm Calm - N/A   Overcast
6:55 AM 33.3 °F - 30.0 °F 88% 29.97 in 10.0 mi Calm Calm - N/A   Overcast
7:15 AM 36.3 °F 33.7 °F 29.5 °F 76% 29.97 in 10.0 mi West 3.5 mph - N/A   Overcast
7:35 AM 37.6 °F 34.0 °F 29.5 °F 73% 29.98 in 10.0 mi NNW 4.6 mph - N/A Rain Light Rain
7:55 AM 39.2 °F - 30.9 °F 72% 29.99 in 10.0 mi Calm Calm - N/A Rain Light Rain
8:15 AM 40.8 °F 36.2 °F 33.3 °F 74% 29.98 in 10.0 mi North 6.9 mph - N/A   Light Drizzle
8:35 AM 41.7 °F 38.0 °F 33.8 °F 73% 29.99 in 10.0 mi NW 5.8 mph - N/A   Overcast
9:15 AM 42.1 °F 39.2 °F 36.0 °F 79% 29.98 in 10.0 mi NNW 4.6 mph - N/A Rain Light Rain
9:35 AM 43.5 °F - 36.3 °F 76% 29.98 in 10.0 mi Calm Calm - N/A   Mostly Cloudy
9:55 AM 43.7 °F 41.1 °F 36.0 °F 74% 29.97 in 10.0 mi NNE 4.6 mph - N/A   Overcast
10:15 AM 43.0 °F 40.3 °F 36.1 °F 77% 29.99 in 10.0 mi North 4.6 mph - N/A   Overcast
10:35 AM 43.2 °F 39.0 °F 36.7 °F 78% 29.99 in 10.0 mi NNE 6.9 mph - N/A Rain Light Rain
10:55 AM 42.3 °F - 36.0 °F 78% 29.99 in 10.0 mi Calm Calm - N/A   Light Drizzle
11:15 AM 42.8 °F - 36.1 °F 77% 30.00 in 10.0 mi Calm Calm - N/A   Light Drizzle
11:35 AM 43.2 °F 41.5 °F 36.9 °F 78% 30.00 in 10.0 mi South 3.5 mph - N/A   Overcast
11:55 AM 44.2 °F 39.7 °F 37.6 °F 77% 29.99 in 10.0 mi South 8.1 mph - N/A   Mostly Cloudy
12:15 PM 45.5 °F 41.8 °F 37.9 °F 75% 29.98 in 10.0 mi SSE 6.9 mph - N/A   Scattered Clouds
12:35 PM 46.4 °F 42.9 °F 37.8 °F 72% 29.98 in 10.0 mi SSE 6.9 mph - N/A   Scattered Clouds
12:55 PM 47.7 °F - 37.6 °F 68% 29.97 in 10.0 mi South 8.1 mph - N/A   Clear
1:15 PM 49.3 °F - 38.5 °F 66% 29.98 in 10.0 mi SSW 5.8 mph - N/A   Scattered Clouds
1:35 PM 49.6 °F - 38.1 °F 65% 29.97 in 10.0 mi South 4.6 mph - N/A   Clear
1:55 PM 50.7 °F - 38.5 °F 63% 29.97 in 10.0 mi SW 6.9 mph - N/A   Clear
2:15 PM 52.0 °F - 37.8 °F 58% 29.97 in 10.0 mi WSW 3.5 mph - N/A   Clear
2:55 PM 54.9 °F - 35.1 °F 47% 29.97 in 10.0 mi West 10.4 mph 16.1 mph N/A   Scattered Clouds
3:15 PM 55.6 °F - 34.0 °F 44% 29.96 in 10.0 mi West 8.1 mph 16.1 mph N/A   Scattered Clouds
3:35 PM 55.0 °F - 32.7 °F 43% 29.95 in 10.0 mi WNW 5.8 mph - N/A   Scattered Clouds
3:55 PM 56.7 °F - 33.6 °F 42% 29.95 in 10.0 mi West 9.2 mph - N/A   Scattered Clouds
4:15 PM 56.7 °F - 32.2 °F 40% 29.95 in 10.0 mi WNW 11.5 mph - N/A   Mostly Cloudy
4:35 PM 56.3 °F - 33.4 °F 42% 29.94 in 10.0 mi West 9.2 mph - N/A   Scattered Clouds
4:55 PM 56.5 °F - 33.3 °F 42% 29.94 in 10.0 mi West 12.7 mph - N/A   Scattered Clouds
5:15 PM 56.3 °F - 32.0 °F 40% 29.94 in 10.0 mi West 11.5 mph - N/A   Clear
5:35 PM 56.5 °F - 32.0 °F 39% 29.94 in 10.0 mi West 9.2 mph - N/A   Clear
5:55 PM 56.3 °F - 32.7 °F 41% 29.94 in 10.0 mi West 5.8 mph - N/A   Clear
6:15 PM 56.1 °F - 31.5 °F 39% 29.94 in 10.0 mi West 8.1 mph - N/A   Clear
6:35 PM 54.0 °F - 32.0 °F 43% 29.94 in 10.0 mi West 5.8 mph - N/A   Clear
6:55 PM 54.9 °F - 30.7 °F 40% 29.95 in 10.0 mi West 6.9 mph - N/A   Clear
7:15 PM 53.6 °F - 29.7 °F 40% 29.95 in 10.0 mi WSW 5.8 mph - N/A   Clear
7:35 PM 51.8 °F - 30.7 °F 45% 29.95 in 10.0 mi Calm Calm - N/A   Clear
7:55 PM 50.5 °F - 30.7 °F 47% 29.94 in 10.0 mi Calm Calm - N/A   Clear
8:15 PM 46.6 °F - 34.3 °F 62% 29.95 in 10.0 mi Calm Calm - N/A   Clear
8:35 PM 45.1 °F - 33.8 °F 65% 29.96 in 10.0 mi Calm Calm - N/A   Clear
8:55 PM 42.1 °F - 34.3 °F 74% 29.98 in 10.0 mi Calm Calm - N/A   Clear
9:15 PM 43.3 °F - 34.9 °F 72% 29.98 in 10.0 mi Calm Calm - N/A   Clear
9:35 PM 42.6 °F - 33.3 °F 69% 29.99 in 10.0 mi Calm Calm - N/A   Clear
9:55 PM 41.2 °F 39.2 °F 34.5 °F 77% 29.99 in 10.0 mi NE 3.5 mph - N/A   Clear
10:15 PM 40.8 °F - 33.4 °F 75% 30.00 in 10.0 mi Calm Calm - N/A   Clear
10:35 PM 41.0 °F - 33.1 °F 73% 29.99 in 10.0 mi Calm Calm - N/A   Clear
10:55 PM 40.3 °F - 33.3 °F 76% 29.98 in 10.0 mi Calm Calm - N/A   Clear
11:15 PM 40.5 °F - 33.1 °F 75% 29.98 in 10.0 mi Calm Calm - N/A   Clear
11:35 PM 38.5 °F - 33.4 °F 82% 29.99 in 10.0 mi Calm Calm - N/A   Clear
11:55 PM 37.9 °F - 33.6 °F 84% 29.99 in 10.0 mi Calm Calm - N/A   Clear